User: anonymous   Login
Location: Caltech
(34.1382°N, 118.1253°W)
Time: 10:23:10
(UTC-07:00)
Language:

Oscar 10/S400 - Orbit

View from above orbital plane
View from above orbital plane
View from above satellite
View from above satellite

Ground track
Ground track

The orbit data is extracted from the following two-line orbital elements,

1 14129U 83058B   16263.37629894 -.00000267 +00000-0 +00000-0 0  9993
2 14129 026.8295 077.8508 6005895 232.8498 036.0673 02.05868233222249
Epoch (UTC): 19 September 2016 09:01:52
Eccentricity: 0.6005895
inclination: 26.8295°
perigee height: 4047 km
apogee height: 35400 km
right ascension of ascending node: 77.8508°
argument of perigee: 232.8498°
revolutions per day: 2.05868233
mean anomaly at epoch: 36.0673°
orbit number at epoch: 22224

The dashed part of the orbit path shows where the satellite is in the earth's shadow,  

DLR